Regional Weather Roundup
Issued by NWS

Home | Current Version | Previous Version | Graphics & Text | Print | Product List | Glossary On
Versions: 1 2 3 4 5 6 7 8 9 10 11 12 13 14 15 16 17 18 19 20 21 22 23 24 25 26 27 28 29 30 31 32 33 34 35 36 37 38 39 40 41 42 43 44 45 46 47 48 49 50
472
ASUS45 KBOI 261610
RWRID

IDAHO REGIONAL WEATHER ROUNDUP
NATIONAL WEATHER SERVICE BOISE ID
1000 AM MDT TUE JUL 26 2016

NOTE: "FAIR" INDICATES FEW OR NO CLOUDS BELOW 12000 FEET
WITH NO SIGNIFICANT WEATHER AND/OR OBSTRUCTIONS TO VISIBILITY

IDZ012-014-261700-
SOUTHWEST IDAHO


CITY           SKY/WX    TMP DP  RH WIND       PRES   REMARKS
BOISE          MOSUNNY   81  38  21 E6        30.01R
CALDWELL       NOT AVBL
MOUNTAIN HOME  SUNNY     77  41  27 E6        30.02S
$$

IDZ016-017-261700-
SOUTHCENTRAL IDAHO


CITY           SKY/WX    TMP DP  RH WIND       PRES   REMARKS
BURLEY         SUNNY     72  51  47 N5        30.09R
JEROME         SUNNY     73  38  27 VRB5      30.10R
TWIN FALLS     SUNNY     81  36  19 SW7       30.10R
$$

IDZ019>023-261700-
SOUTHEAST IDAHO


CITY           SKY/WX    TMP DP  RH WIND       PRES   REMARKS
IDAHO FALLS    SUNNY     73  45  36 N6        30.14F
POCATELLO      SUNNY     76  45  33 VRB5      30.12F
REXBURG        SUNNY     71  46  40 N5        30.16F
$$

IDZ006-010-011-018-031-032-261700-
CENTRAL IDAHO MOUNTAINS


CITY           SKY/WX    TMP DP  RH WIND       PRES   REMARKS
MCCALL         MOSUNNY   68  50  52 S17G23    30.17R
HAILEY         SUNNY     72  37  28 NW12      30.20S
STANLEY          N/A     62  35  36 N3        30.29F
SALMON         SUNNY     66  43  42 CALM      30.13F
CHALLIS        SUNNY     71  37  28 NE3       30.19F
$$

IDZ002-004-006-007-026-261700-
NORTHERN IDAHO


CITY           SKY/WX    TMP DP  RH WIND       PRES   REMARKS
LEWISTON       SUNNY     76  53  44 E5        30.01S
LOWELL           N/A     68  53  58 CALM      30.06
COEUR D`ALENE  SUNNY     73  54  49 SE5       30.04S
MULLAN PASS    SUNNY     68  47  46 NW5       30.23S
$$




USA.gov is the U.S. government's official web portal to all federal, state and local government web resources and services.